Wind_Speed
18 18 17 17 17 17 18 19 19 19 19 19 20 21 21 21 21 21 21 22 23 24 24 25 25 26 26 26 26 26 26 26 27 27 27 28 28 28 28 28 28 28 29
19 19 19 19 18 18 19 19 20 20 20 20 20 22 22 21 21 21 22 23 23 24 25 25 25 26 26 25 26 26 26 26 26 26 26 27 27 27 28 28 28 28 28
20 19 19 19 19 19 19 19 20 20 19 19 19 20 21 21 22 22 23 23 23 24 25 26 26 26 26 25 25 25 25 25 25 26 26 25 25 26 27 27 27 27 28
19 19 19 20 20 19 19 19 20 20 19 20 20 20 21 22 22 22 23 23 24 25 25 25 25 25 25 24 24 24 24 24 24 24 25 26 26 26 26 27 27 27 28
19 20 20 20 20 19 19 20 21 20 20 19 19 20 21 21 21 22 22 23 24 24 25 25 25 25 25 24 24 24 24 24 24 25 26 26 26 26 26 27 27 27 27
19 19 19 20 20 19 19 20 21 21 21 21 20 20 20 20 21 22 23 23 24 25 25 26 25 24 24 24 24 25 25 25 25 26 26 26 25 26 26 26 26 26 27
18 19 19 20 20 19 20 21 22 21 20 20 20 21 21 21 22 22 23 24 25 25 25 25 24 24 24 24 24 25 25 25 25 25 26 25 25 25 25 25 25 26 26
18 19 19 19 19 19 20 21 22 22 22 21 20 21 22 22 23 23 23 24 24 24 24 24 24 24 24 24 24 24 25 25 25 25 25 24 25 25 24 24 24 24 24
19 19 18 19 19 19 20 20 21 21 21 22 22 22 22 23 23 23 24 24 23 23 23 24 24 24 24 24 24 24 24 24 24 24 24 24 24 24 24 23 23 23 23
19 18 18 18 18 18 20 21 20 20 21 22 22 22 23 23 23 23 22 22 22 22 23 23 24 24 24 23 23 23 24 23 23 24 24 24 24 24 24 23 23 23 23
17 17 17 17 17 18 19 19 20 20 20 21 21 22 22 23 22 21 22 22 21 22 22 23 23 22 23 22 22 22 23 23 23 23 24 24 24 23 23 23 23 23 22
16 16 16 16 17 18 19 19 19 20 20 20 20 21 21 21 21 21 21 22 22 22 22 22 22 21 21 22 22 22 22 22 23 23 23 23 23 23 22 22 23 23 22
15 16 16 17 17 18 19 19 18 19 19 19 19 19 19 19 20 20 21 21 21 21 21 21 21 21 21 22 22 22 23 23 23 23 23 22 22 22 22 22 22 22 22
15 16 17 17 17 17 17 17 18 19 19 18 18 18 18 18 19 19 19 19 19 20 20 20 20 21 21 22 23 23 23 23 23 22 22 22 21 22 22 22 21 21 21
16 16 17 17 17 17 17 17 17 17 17 17 17 17 17 17 18 18 18 18 19 19 19 19 20 21 21 22 22 21 21 21 21 22 22 23 22 22 22 20 20 21 21
16 16 16 17 17 16 16 16 16 16 16 17 17 17 16 16 17 17 18 18 19 18 19 19 19 19 20 20 20 20 20 20 20 21 22 22 22 22 21 20 19 19 20
17 16 16 17 16 16 15 15 15 15 15 16 16 15 15 15 16 17 17 18 18 18 18 18 19 19 19 19 19 19 20 19 19 20 21 21 20 20 20 19 19 19 20
17 16 15 15 15 14 13 13 13 14 14 14 14 13 14 15 15 16 16 17 18 17 17 18 19 19 19 19 18 19 19 19 19 19 20 19 19 19 18 18 19 19 19
16 14 14 13 13 12 12 12 13 13 13 13 12 13 13 13 14 14 15 17 17 17 17 18 18 19 19 19 19 19 19 19 19 19 18 18 18 18 18 18 18 18 18
14 14 13 12 12 12 12 12 12 12 12 12 12 12 12 12 13 14 15 16 17 17 17 18 18 18 18 18 19 19 19 18 18 18 18 18 18 19 19 18 18 17 18
14 13 12 12 11 11 10 10 10 10 11 12 11 11 12 12 13 14 15 16 16 17 17 18 18 18 19 19 19 19 19 18 18 18 18 18 19 18 18 18 18 17 17
13 12 11 11 10 10 9 10 10 10 10 10 11 11 12 12 13 14 15 15 16 16 17 17 18 18 19 19 19 19 19 19 19 18 18 19 19 19 18 18 18 17 16
10 10 10 10 9 9 9 9 9 9 9 9 10 11 11 12 12 13 14 15 16 17 17 18 18 19 19 19 20 20 21 20 19 19 19 19 19 19 20 20 19 18 17
10 10 9 9 8 8 9 8 9 9 9 9 10 10 10 10 11 12 14 14 15 16 16 17 18 19 19 20 21 21 21 21 20 20 21 21 21 21 20 19 19 19 19
9 9 8 7 7 7 7 7 8 8 8 9 9 9 10 11 12 13 14 15 15 16 17 17 18 19 19 20 21 22 22 22 22 22 22 22 22 21 21 21 20 20 19
6 6 6 6 6 6 6 6 7 7 8 8 9 9 10 11 12 13 14 15 16 17 17 18 19 20 20 21 22 22 22 22 23 23 23 23 23 23 22 22 21 20 20
Wind_Direction
283 283 283 285 285 285 285 291 293 294 290 291 293 293 293 293 295 296 295 295 296 297 296 297 297 296 295 294 293 292 291 290 289 287 285 284 282 278 277 276 275 273 271
281 283 282 281 284 287 288 292 294 292 288 288 289 292 292 291 290 291 293 294 295 297 298 298 299 299 298 296 295 293 292 290 289 287 286 285 283 280 278 276 275 274 271
280 281 280 279 281 284 290 292 292 292 289 287 287 288 290 288 287 289 294 297 298 299 300 300 300 299 300 299 297 293 292 291 290 289 287 286 283 281 280 278 276 276 273
275 273 277 280 281 282 286 290 290 289 288 288 291 289 288 289 288 291 293 296 298 298 297 297 298 300 302 301 299 296 295 295 294 292 290 288 285 282 282 280 277 276 275
273 272 276 278 277 280 283 287 289 287 287 290 291 289 288 291 292 294 295 298 299 299 299 299 299 300 301 300 299 296 294 295 295 294 292 290 286 285 284 282 279 277 275
275 272 275 277 279 282 284 288 290 288 286 287 289 290 290 291 293 294 296 297 298 299 300 298 298 299 300 299 298 296 294 295 296 296 294 292 289 287 286 285 281 278 276
276 276 275 277 279 283 286 289 291 289 288 288 288 291 292 291 292 293 294 296 298 299 300 299 298 299 300 300 299 297 297 298 297 296 294 292 289 289 288 285 282 279 276
278 279 278 278 279 283 288 291 291 289 292 292 293 293 293 292 292 293 295 298 299 300 301 301 299 299 300 300 299 300 300 299 298 298 297 295 292 291 289 288 285 281 277
277 279 279 280 282 285 288 292 294 292 294 295 295 295 296 295 295 296 297 299 301 303 302 303 300 299 300 300 299 300 301 301 300 299 299 298 295 292 290 287 285 283 278
277 277 278 279 281 284 288 290 293 294 295 296 297 297 297 299 300 300 300 301 303 305 305 305 304 302 302 301 300 301 302 303 302 301 301 300 298 296 292 290 286 283 279
278 278 278 279 282 284 290 291 292 295 298 300 298 299 298 300 301 301 302 303 304 307 308 308 307 307 306 305 303 303 303 303 303 303 303 301 301 299 294 291 287 285 282
281 282 282 284 286 286 290 294 295 297 300 300 299 301 301 301 302 303 305 307 307 308 309 311 310 310 309 308 305 305 305 304 303 303 304 303 301 301 297 293 290 286 283
281 284 283 284 286 287 291 295 295 298 301 303 305 306 304 304 304 305 308 311 310 310 312 313 313 312 311 310 308 306 305 306 304 303 303 303 302 303 300 296 292 288 286
284 285 284 284 286 289 292 296 297 299 301 304 307 307 307 306 307 310 314 315 315 314 313 314 314 314 313 312 310 308 307 306 304 303 303 304 304 304 302 298 293 291 288
288 289 289 288 290 291 293 295 297 301 303 305 307 308 308 309 311 314 317 319 319 317 316 317 319 318 317 316 313 311 309 308 307 306 305 305 305 304 303 301 298 294 291
288 289 288 289 289 290 294 297 300 302 307 309 308 308 310 313 315 318 318 318 319 319 321 322 324 324 322 322 321 317 313 311 311 312 310 309 307 306 305 302 302 300 297
289 286 284 285 286 291 296 299 302 305 308 309 309 308 311 315 317 318 319 320 321 322 325 328 330 331 329 327 326 323 320 317 315 316 316 315 312 310 309 306 303 303 301
294 288 288 287 287 291 296 300 305 308 310 310 309 310 313 316 317 319 322 325 327 327 327 329 331 333 333 332 332 331 328 326 324 320 318 320 320 317 312 309 307 305 304
292 289 287 287 289 293 297 301 306 312 316 316 315 315 316 317 318 323 325 328 330 330 330 330 332 333 333 333 333 331 330 330 329 326 324 323 322 322 319 313 311 308 307
289 289 287 287 290 294 299 304 308 313 318 322 324 324 321 319 322 326 327 329 330 331 331 332 331 332 333 334 336 336 334 333 331 329 329 328 326 324 322 320 316 311 307
290 291 290 289 292 295 299 306 312 318 323 327 327 328 326 325 325 326 328 331 333 334 335 334 334 333 334 334 336 337 338 336 334 332 331 331 329 327 324 322 320 317 313
287 288 290 289 292 297 302 310 315 319 323 326 328 330 330 329 329 328 329 333 335 336 335 334 335 336 335 335 336 337 338 337 335 333 332 331 330 328 325 324 321 319 316
284 288 291 292 293 297 300 306 313 317 322 327 329 330 330 330 333 334 335 336 335 335 334 336 337 338 338 338 337 336 335 336 334 333 331 330 327 324 323 322 321 318 316
280 288 291 291 290 293 298 307 315 321 327 332 334 336 336 337 339 339 340 341 341 341 341 339 338 340 340 339 338 337 337 335 334 332 331 328 326 324 323 321 319 318 315
278 283 287 288 290 294 301 310 318 324 330 332 335 339 339 337 338 340 341 345 346 344 342 341 341 341 341 340 338 337 336 335 333 331 330 329 328 324 322 320 317 315 314
270 275 283 288 294 301 306 312 318 323 328 332 334 338 342 342 342 342 344 347 346 345 343 342 341 341 342 341 340 339 337 333 332 331 330 329 326 324 322 320 318 315 312
Height
5837 5836 5836 5835 5834 5833 5831 5830 5828 5827 5825 5824 5822 5820 5819 5817 5816 5814 5812 5809 5807 5805 5802 5800 5798 5796 5793 5791 5789 5787 5785 5783 5781 5779 5777 5776 5774 5773 5772 5771 5770 5770 5769
5833 5832 5831 5831 5830 5829 5827 5825 5824 5822 5820 5819 5817 5816 5814 5812 5810 5808 5806 5804 5802 5800 5797 5795 5793 5790 5787 5785 5782 5780 5778 5776 5774 5772 5770 5769 5768 5765 5764 5763 5763 5762 5761
5829 5828 5827 5826 5825 5824 5823 5821 5819 5817 5815 5814 5812 5810 5809 5807 5805 5803 5801 5799 5796 5794 5792 5790 5787 5784 5781 5779 5776 5774 5772 5769 5767 5765 5764 5762 5761 5759 5758 5756 5755 5754 5754
5824 5823 5823 5822 5821 5820 5818 5816 5815 5813 5811 5809 5807 5805 5804 5802 5800 5799 5796 5794 5791 5788 5786 5783 5781 5778 5776 5773 5770 5768 5766 5763 5761 5759 5757 5755 5753 5752 5751 5750 5748 5747 5746
5820 5819 5818 5817 5816 5815 5813 5812 5810 5808 5806 5804 5802 5801 5799 5797 5795 5793 5791 5789 5786 5783 5780 5778 5775 5773 5770 5767 5764 5762 5760 5757 5755 5753 5750 5748 5746 5745 5744 5743 5742 5740 5739
5815 5814 5813 5812 5811 5810 5809 5807 5805 5803 5801 5799 5798 5795 5794 5792 5790 5788 5785 5783 5780 5777 5775 5772 5770 5767 5764 5762 5759 5756 5754 5751 5749 5747 5744 5742 5740 5738 5737 5736 5734 5733 5732
5810 5809 5809 5808 5807 5805 5804 5803 5801 5799 5797 5795 5793 5791 5788 5786 5784 5782 5780 5777 5774 5772 5769 5766 5764 5761 5759 5756 5753 5751 5748 5746 5743 5741 5738 5735 5733 5732 5730 5728 5727 5726 5724
5805 5804 5803 5803 5802 5801 5799 5798 5796 5794 5792 5790 5788 5786 5783 5781 5779 5776 5774 5772 5769 5766 5763 5760 5758 5756 5753 5750 5748 5745 5742 5740 5737 5735 5732 5729 5727 5725 5723 5721 5720 5719 5718
5800 5799 5798 5797 5796 5796 5795 5792 5791 5789 5787 5785 5783 5780 5778 5776 5773 5771 5769 5767 5764 5761 5758 5755 5752 5750 5747 5745 5742 5739 5737 5734 5731 5729 5726 5723 5721 5718 5716 5715 5713 5713 5712
5795 5794 5793 5793 5792 5791 5789 5787 5786 5784 5782 5780 5778 5776 5773 5770 5768 5766 5764 5761 5759 5756 5753 5750 5747 5744 5742 5739 5736 5734 5731 5729 5726 5723 5720 5717 5715 5712 5710 5708 5707 5706 5705
5790 5789 5789 5788 5787 5786 5784 5782 5781 5779 5777 5775 5773 5771 5768 5766 5763 5761 5759 5756 5754 5751 5748 5745 5742 5739 5737 5734 5731 5728 5726 5723 5720 5717 5715 5712 5709 5707 5704 5702 5700 5699 5698
5786 5785 5784 5784 5783 5781 5780 5778 5776 5774 5772 5770 5768 5766 5763 5761 5759 5757 5754 5752 5749 5746 5743 5740 5737 5734 5731 5729 5726 5723 5720 5718 5715 5712 5709 5706 5704 5701 5698 5696 5694 5693 5691
5781 5780 5780 5779 5778 5777 5775 5774 5772 5770 5768 5765 5763 5761 5759 5757 5755 5753 5750 5747 5745 5742 5739 5736 5733 5730 5727 5723 5721 5718 5715 5712 5710 5707 5704 5701 5698 5696 5693 5691 5689 5687 5685
5777 5776 5775 5774 5773 5772 5771 5769 5767 5765 5763 5761 5759 5757 5755 5753 5751 5749 5746 5743 5741 5738 5735 5732 5729 5725 5722 5719 5716 5713 5710 5707 5704 5702 5699 5696 5693 5691 5688 5685 5683 5681 5679
5773 5772 5771 5770 5769 5767 5766 5765 5763 5761 5759 5757 5755 5753 5751 5749 5747 5745 5742 5740 5737 5734 5731 5728 5725 5721 5717 5714 5710 5707 5705 5702 5699 5697 5694 5691 5688 5686 5683 5680 5678 5676 5674
5768 5767 5766 5766 5765 5764 5762 5761 5759 5757 5755 5754 5751 5749 5747 5745 5743 5741 5739 5737 5734 5731 5728 5725 5721 5717 5714 5710 5706 5703 5700 5697 5695 5692 5689 5686 5683 5680 5678 5675 5673 5671 5669
5764 5763 5762 5761 5760 5760 5758 5757 5755 5754 5752 5750 5748 5746 5744 5742 5740 5738 5736 5734 5731 5728 5725 5722 5718 5715 5711 5707 5703 5700 5696 5693 5690 5687 5684 5681 5678 5676 5673 5670 5668 5666 5664
5760 5759 5758 5757 5757 5756 5755 5754 5752 5750 5748 5746 5744 5743 5741 5739 5737 5735 5733 5731 5728 5725 5722 5719 5715 5712 5708 5704 5700 5697 5693 5690 5686 5683 5680 5677 5675 5672 5669 5666 5663 5661 5659
5756 5755 5755 5754 5753 5752 5751 5750 5749 5747 5745 5743 5741 5739 5738 5736 5735 5733 5731 5728 5725 5722 5719 5716 5713 5709 5705 5702 5698 5694 5690 5687 5683 5680 5677 5674 5671 5668 5665 5662 5659 5657 5654
5752 5751 5751 5750 5749 5749 5748 5747 5745 5744 5742 5740 5739 5737 5735 5734 5732 5730 5728 5725 5723 5720 5717 5713 5710 5706 5703 5699 5695 5691 5687 5684 5680 5677 5674 5671 5668 5665 5661 5658 5655 5653 5650
5749 5748 5747 5747 5746 5745 5745 5744 5743 5741 5740 5738 5737 5735 5733 5732 5730 5728 5726 5723 5720 5718 5715 5711 5708 5704 5700 5697 5693 5689 5685 5681 5678 5674 5671 5668 5664 5661 5658 5655 5652 5649 5646
5745 5745 5744 5744 5743 5743 5742 5741 5740 5739 5738 5737 5735 5733 5732 5730 5728 5726 5723 5721 5718 5715 5712 5709 5706 5702 5698 5694 5690 5686 5683 5679 5675 5672 5668 5665 5661 5658 5655 5651 5648 5645 5643
5742 5741 5741 5741 5740 5740 5740 5739 5738 5737 5736 5735 5733 5731 5730 5728 5726 5724 5721 5719 5716 5713 5710 5707 5703 5700 5696 5692 5688 5684 5680 5676 5672 5669 5665 5662 5658 5654 5651 5648 5645 5642 5639
5739 5739 5738 5738 5738 5738 5737 5737 5736 5735 5734 5733 5731 5730 5728 5726 5724 5722 5719 5716 5713 5710 5707 5704 5701 5697 5694 5690 5685 5681 5677 5674 5670 5666 5662 5658 5654 5651 5647 5643 5640 5637 5634
5736 5736 5736 5736 5736 5735 5735 5735 5734 5733 5733 5731 5730 5728 5727 5725 5723 5721 5718 5715 5712 5708 5706 5702 5699 5695 5692 5687 5683 5679 5675 5671 5667 5663 5658 5654 5650 5646 5642 5639 5636 5632 5630
5734 5734 5734 5734 5734 5734 5733 5733 5733 5732 5731 5730 5729 5727 5725 5724 5722 5719 5716 5713 5710 5707 5704 5700 5697 5693 5689 5685 5681 5676 5672 5667 5663 5659 5654 5650 5646 5642 5638 5634 5630 5627 5624